Regional Weather Roundup
Issued by NWS

Home | Current Version | Previous Version | Graphics & Text | Print | Product List | Glossary Off
Versions: 1 2 3 4 5 6 7 8 9 10 11 12 13 14 15 16 17 18 19 20 21 22 23 24 25 26 27 28 29 30 31 32 33 34 35 36 37 38 39 40 41 42 43 44 45 46 47 48 49 50

000
ASUS43 KDTX 300410
RWRMI
MICHIGAN HOURLY REGIONAL WEATHER ROUNDUP
NATIONAL WEATHER SERVICE DETROIT/PONTIAC MI
1200 AM EDT THU MAR 30 2017

NOTE: "FAIR" INDICATES FEW OR NO CLOUDS BELOW 12,000 FEET WITH NO
SIGNIFICANT WEATHER AND/OR OBSTRUCTION TO VISIBILITY.

MIZ047>049-052>055-059>063-066>070-074>076-081>083-300500-
SOUTHEAST LOWER MICHIGAN

CITY           SKY/WX    TMP DP  RH WIND       PRES   REMARKS
ADRIAN         CLOUDY    43  34  70 E14       30.17F
ALMA           CLOUDY    36  29  75 NE12      30.25F WCI  27
ANN ARBOR      LGT RAIN  42  33  70 N13       30.18F
BAD AXE        CLOUDY    36  26  68 E7        30.26R WCI  30
CARO           CLOUDY    36  29  75 CALM      30.25S
DETROIT CITY   CLOUDY    41  30  65 N8        30.23R
DETROIT        CLOUDY    42  31  64 NE15      30.22R
FLINT          CLOUDY    38  29  70 E9        30.24F WCI  31
GROSSE ILE     CLOUDY    42  32  70 NE13      30.19F
HILLSDALE      CLOUDY    41  32  70 E13       30.13F
HOWELL         CLOUDY    41  30  64 NE9       30.20F

CITY           SKY/WX    TMP DP  RH WIND       PRES   REMARKS
JACKSON        CLOUDY    42  35  76 NE13      30.14F
LAMBERTVILLE   MOCLDY    45  32  60 NE7       30.16F
LANSING        CLOUDY    41  31  67 NE13      30.20F
LAPEER         CLOUDY    37  29  73 CALM      30.24F
MASON          RAIN      42  36  79 E8        30.18F
MONROE         CLOUDY    42  35  76 NE7       30.18F
MT. CLEMENS    CLOUDY    39  31  72 N3        30.23R
PONTIAC        CLOUDY    40  29  64 NE7       30.21R
PORT HOPE        N/A     36  30  79 NE13      30.25F WCI  27
PORT HURON     CLOUDY    37  30  75 CALM      30.25R
TRI CITIES     CLOUDY    36  31  82 NE14      30.26F WCI  27
MIDLAND        CLOUDY    36  28  71 NE10G16   30.25F WCI  28
TROY           CLOUDY    41  26  56 NE6       30.25F
SAGINAW HB     CLOUDY    36  28  75 NE7       30.26F WCI  30
$$
MIZ043>046-050>051-056>058-064>065-071>073-077>080-300500-
SOUTHWEST LOWER MICHIGAN

CITY           SKY/WX    TMP DP  RH WIND       PRES   REMARKS
BATTLE CREEK   CLOUDY    43  39  86 E13       30.14F
BENTON HARBOR  CLOUDY    48  38  68 NE9       30.11R
BIG RAPIDS     CLOUDY    37  25  61 E9        30.22S WCI  30
COLDWATER      CLOUDY    46  32  58 E15       30.13F
FREMONT        CLOUDY    40  27  59 E8        30.21R WCI  34
HOLLAND        LGT RAIN  41  35  79 NE13G20   30.17S
GRAND RAPIDS   RAIN      38  35  89 NE10      30.20S WCI  31
IONIA          DRIZZLE   37  30  74 NE12      30.20S WCI  30
KALAMAZOO      LGT RAIN  45  38  76 E8        30.14S
LUDINGTON      DRIZZLE   41  31  69 E12       30.20R
MARSHALL       CLOUDY    43  36  75 E8        30.15F
MOUNT PLEASANT CLOUDY    35  24  64 E9        30.25S WCI  28
MUSKEGON       LGT RAIN  41  32  70 E9        30.20R
SOUTH HAVEN    CLOUDY    44  38  79 NE12G17   30.12F
$$
MIZ016>042-300500-
NORTHERN LOWER MICHIGAN

CITY           SKY/WX    TMP DP  RH WIND       PRES   REMARKS
ALPENA         MOCLDY    33  25  72 NE6       30.30S WCI  28
BEAVER ISLAND  MOCLDY    35  27  74 E7        30.27S WCI  29
BELLAIRE       CLOUDY    38  18  44 E6        30.27F WCI  33
CADILLAC       CLOUDY    36  24  60 E12       30.21F WCI  28
CHARLEVOIX     CLOUDY    38  20  49 SE12      30.29F WCI  30
FRANKFORT      CLOUDY    42  31  63 E6        30.22S
GAYLORD        CLOUDY    35  19  52 SE9       30.25R WCI  28
GRAYLING       CLOUDY    34  19  55 E5        30.28R WCI  30
HARBOR SPRINGS CLOUDY    36  22  58 E8        30.27F WCI  29
HOUGHTON LAKE  CLOUDY    34  20  56 SE6       30.27S WCI  29
MANISTEE       CLOUDY    42  29  59 E15       30.21S
OSCODA         CLOUDY    37  26  65 E9        30.29R WCI  30
ROGERS CITY    CLOUDY    34  25  68 E3        30.31S
TRAVERSE CITY  CLOUDY    40  23  50 E9        30.24F WCI  34
$$
MIZ007>008-015-300500-
EASTERN UPPER MICHIGAN

CITY           SKY/WX    TMP DP  RH WIND       PRES   REMARKS
KINROSS        CLOUDY    32  22  66 E6        30.30S WCI  26
MACKINAC ISLAN CLOUDY    33  29  86 E9        30.29S WCI  25
NEWBERRY       CLOUDY    31  25  77 E5        30.27F WCI  26
S. S. MARIE    CLOUDY    34  25  69 CALM      30.30F
MUNISING         N/A     32  28  85 S3        30.26F
$$
MIZ004>006-011>014-085-300500-
CENTRAL UPPER MICHIGAN

CITY           SKY/WX    TMP DP  RH WIND       PRES   REMARKS
MANISTIQUE     CLOUDY    35  25  66 E8        30.27S WCI  28
ESCANABA       CLOUDY    36  24  62 NE3       30.25F
MENOMINEE      CLOUDY    35  27  72 CALM      30.25F
SAWYER-GWINN   CLOUDY    29  27  92 CALM      30.24F
$$
MIZ001>003-009>011-084-300500-
WESTERN UPPER MICHIGAN

CITY           SKY/WX    TMP DP  RH WIND       PRES   REMARKS
IRON MOUNTAIN  CLOUDY    36  24  62 NE3       30.21F
HOUGHTON       CLOUDY    31  27  85 E10       30.22F WCI  22
COPPER HARBOR    N/A     32  28  85 CALM      30.26F
IRONWOOD       PTCLDY    38  29  70 E5        30.17F WCI  34
$$

ABBREVIATIONS USED IN REMARKS
   TC - TEMPERATURE IN CELSIUS
  WCI - WIND CHILL INDEX
   HX - HEAT INDEX
  VSB - VISIBILITY





USA.gov is the U.S. government's official web portal to all federal, state and local government web resources and services.